Dewpoint
64 70 71 72 69 69 69 65 67 63 62 63 63 68 68 69 68 68 68 68 71 71 70 68 68 69 69 69 70 71 72 71 71 70 68 67 67 66
64 71 69 70 69 69 68 68 67 65 64 65 66 68 68 68 68 70 68 70 71 71 70 68 68 69 69 68 69 70 70 70 70 70 69 67 66 67
70 70 69 69 70 71 69 69 68 67 65 67 67 67 67 67 65 69 71 71 71 69 68 67 66 69 69 68 67 68 69 69 69 69 69 69 67 66
70 70 69 69 69 69 70 69 67 68 66 64 68 69 67 69 70 70 72 72 70 70 67 66 67 68 67 66 65 65 65 66 66 67 68 68 68 67
70 70 70 70 69 68 68 67 69 70 69 68 67 67 67 68 68 68 67 70 70 69 66 65 65 66 66 64 63 62 61 61 62 62 64 65 67 67
72 71 71 70 69 69 69 69 69 67 69 68 68 67 68 69 70 69 70 71 69 70 69 68 68 67 66 64 63 63 61 60 59 60 60 61 63 65
72 71 71 71 70 68 69 69 69 68 68 67 67 67 67 68 69 70 70 70 70 70 70 68 68 69 69 68 69 67 64 62 60 59 58 59 59 60
71 70 71 66 66 67 67 67 67 67 67 68 68 67 68 69 70 70 70 69 68 71 70 69 70 69 70 72 69 68 67 63 62 60 59 58 58 58
70 70 69 61 59 61 66 68 68 66 67 68 67 68 69 69 70 70 69 70 69 70 71 69 70 69 71 71 68 66 65 65 63 61 60 59 58 57
66 67 62 56 54 53 62 67 69 66 66 66 68 68 68 68 68 69 70 70 71 70 70 67 69 67 68 68 67 65 63 63 63 61 60 58 57 55
55 55 51 49 52 54 56 57 62 64 62 59 59 60 60 60 62 65 65 67 67 67 69 69 69 65 63 66 68 65 64 62 59 59 59 59 56 54
58 53 52 46 50 51 47 51 56 59 55 52 54 58 60 62 62 66 67 66 66 65 69 67 64 63 64 66 66 70 69 64 60 60 60 58 55 60
54 51 49 49 47 48 49 47 53 53 52 55 57 55 53 55 56 60 63 67 66 65 64 65 64 65 66 65 67 68 68 68 68 69 62 61 58 59
47 51 44 47 46 47 48 51 51 53 55 53 52 52 52 52 53 56 57 53 56 57 58 62 64 61 60 61 63 62 63 66 67 66 66 66 63 57
46 47 48 48 49 50 52 53 53 55 52 48 48 49 50 50 49 49 48 48 49 51 51 54 51 51 51 51 51 54 58 58 60 60 62 63 67 70
41 41 47 51 51 51 49 48 48 48 47 47 47 46 46 46 45 47 48 48 50 49 49 49 46 47 47 49 51 51 54 54 54 53 53 55 58 62
40 46 48 47 45 46 46 46 46 46 44 43 44 44 44 43 42 43 43 43 44 43 42 42 45 48 48 49 51 49 48 48 48 49 50 53 55 56
40 46 45 46 45 45 44 44 45 47 45 44 44 44 43 42 41 41 41 41 40 39 39 40 41 43 39 42 50 43 43 38 40 47 49 49 50 51
42 46 44 44 43 43 43 43 42 43 42 42 43 42 41 40 40 39 39 38 38 38 39 39 39 40 37 36 37 46 39 39 40 40 41 42 42 42
40 43 43 43 43 43 43 42 42 41 42 42 41 41 39 38 38 38 38 37 37 37 36 37 37 37 36 36 37 39 44 40 39 39 39 38 40 46
42 42 42 43 43 43 43 42 42 40 40 40 39 39 38 38 37 37 37 38 38 36 35 35 36 43 39 38 36 36 37 42 42 39 38 38 38 39
43 42 43 43 43 43 42 41 40 39 38 38 37 37 37 37 36 36 36 36 36 36 36 37 38 38 37 36 36 36 37 37 40 44 46 45 39 37
41 41 42 42 42 42 40 39 38 38 38 38 37 36 36 36 36 37 37 37 37 36 36 36 37 37 36 36 36 36 36 37 37 37 37 43 44 45
Lifted_Index
-3 -4 -5 -5 -5 -4 -4 -4 -4 -4 -3 -3 -3 -3 -3 -2 -3 -3 -4 -5 -5 -5 -5 -4 -3 -3 -2 -1 -1 -1 -2 -2 -2 -1 -1 -1 -2 -2
-3 -4 -4 -5 -5 -4 -4 -4 -4 -4 -3 -3 -3 -3 -3 -3 -3 -3 -4 -5 -5 -5 -5 -4 -3 -3 -2 -1 -1 -1 -1 -1 -1 -1 -1 -1 -1 -1
-3 -4 -4 -4 -4 -4 -4 -4 -4 -4 -3 -3 -3 -3 -3 -3 -3 -3 -4 -5 -5 -5 -4 -3 -3 -3 -2 -1 -1 -1 -1 -1 -1 -1 -0 -0 -1 -1
-4 -4 -4 -4 -4 -4 -4 -4 -4 -4 -3 -3 -3 -2 -2 -2 -3 -3 -4 -5 -5 -4 -3 -3 -3 -3 -2 -2 -1 -1 -1 -0 -0 -0 -0 0 0 0
-4 -4 -4 -4 -3 -3 -3 -3 -3 -3 -3 -3 -3 -2 -2 -2 -3 -3 -4 -4 -4 -4 -3 -3 -3 -3 -2 -2 -2 -1 -1 -0 -0 -1 -1 -0 0 1
-4 -4 -4 -4 -3 -3 -3 -3 -3 -2 -2 -2 -2 -2 -2 -2 -3 -4 -4 -4 -4 -3 -3 -3 -3 -3 -3 -3 -3 -2 -1 -1 -1 -1 -1 -0 0 1
-4 -4 -4 -4 -3 -3 -3 -3 -3 -2 -2 -2 -2 -2 -2 -3 -3 -4 -4 -4 -4 -3 -3 -3 -3 -3 -3 -4 -3 -3 -2 -1 -1 -1 -1 -1 -0 0
-3 -3 -3 -3 -3 -3 -3 -3 -3 -2 -2 -2 -2 -2 -2 -3 -3 -4 -4 -4 -4 -3 -3 -3 -3 -3 -3 -4 -4 -3 -2 -2 -2 -2 -2 -2 -2 -1
-3 -3 -3 -3 -3 -2 -2 -2 -3 -3 -3 -3 -3 -3 -3 -3 -3 -3 -4 -4 -4 -3 -3 -3 -3 -3 -2 -2 -3 -3 -2 -3 -3 -3 -3 -3 -3 -2
-2 -2 -2 -2 -2 -1 -1 -1 -2 -2 -2 -3 -3 -2 -2 -2 -2 -2 -3 -3 -3 -3 -3 -3 -3 -2 -1 -1 -1 -2 -2 -2 -2 -3 -3 -3 -3 -3
-1 -1 -1 -1 -0 0 0 0 -0 -1 -1 -1 -1 -1 -1 -1 -1 -1 -2 -2 -2 -2 -2 -2 -1 -1 -0 -1 -1 -2 -2 -2 -2 -2 -3 -3 -3 -3
0 0 0 1 2 2 2 2 2 1 1 1 1 1 0 0 0 0 -0 -1 -1 -1 -1 -1 -0 0 -0 -1 -2 -2 -2 -1 -1 -2 -2 -2 -2 -3
2 3 3 4 4 5 5 5 5 4 4 4 4 3 2 2 2 2 2 2 2 1 2 2 2 2 1 0 -1 -1 -1 -1 -1 -1 -1 -1 -2 -2
6 6 7 7 8 8 9 8 8 7 7 7 6 6 6 5 4 4 5 5 5 5 5 5 5 4 4 3 2 1 1 1 0 0 -0 -1 -1 -2
10 10 10 10 10 10 10 10 9 9 9 9 9 9 9 9 8 8 8 8 8 8 8 8 8 8 7 6 5 4 4 3 3 2 1 0 -0 -0
13 12 11 11 10 10 10 10 10 10 10 11 11 11 11 12 12 12 11 11 11 10 10 11 11 11 10 9 8 7 7 7 6 6 5 3 2 2
12 11 11 10 10 10 10 11 11 11 12 12 13 14 14 14 14 14 14 13 13 12 12 13 13 13 12 12 11 11 11 11 11 10 9 8 7 6
11 11 11 11 11 11 12 12 13 13 14 14 15 15 15 15 15 15 15 14 14 14 14 15 15 14 13 13 13 14 14 15 15 14 13 13 11 10
10 10 10 11 11 12 12 13 14 15 15 15 15 15 15 15 15 15 15 15 15 15 15 16 16 15 14 13 14 15 16 16 16 16 16 16 15 14
10 10 10 11 11 12 13 13 14 15 15 15 15 16 16 16 16 15 16 16 15 15 16 16 17 17 16 15 15 15 16 17 17 17 17 17 16 16
10 10 10 11 11 12 13 13 14 14 15 15 15 16 16 16 16 16 16 16 16 16 15 16 17 17 17 17 16 16 16 17 18 18 18 17 16 16
10 10 11 11 12 12 13 14 14 15 15 15 15 16 16 16 16 16 16 16 16 16 16 16 17 17 17 17 16 16 16 17 18 18 18 18 17 16
10 10 11 12 12 13 13 14 15 15 15 15 15 16 16 15 15 15 16 16 16 16 16 16 17 17 17 16 16 16 16 16 17 17 17 18 18 18